| time (UTC) | temp F | wind direction | speed knots | gust knots | rain 1hr in | rain 24hr in | rain mn in | humidity % | barometer mb |
| 20260902203816 | 63 | 219 | 3.5 | 8.7 | 0.00 | 0.06 | 0.06 | 92 | 1010.3 |
| 20260902203316 | 63 | 243 | 3.5 | 7.0 | 0.00 | 0.06 | 0.06 | 92 | 1010.4 |
| 20260902202816 | 63 | 214 | 2.6 | 6.1 | 0.00 | 0.06 | 0.06 | 92 | 1010.5 |
| 20260902202315 | 63 | 236 | 2.6 | 5.2 | 0.00 | 0.06 | 0.06 | 92 | 1010.4 |
| 20260902201816 | 63 | 248 | 2.6 | 7.0 | 0.00 | 0.06 | 0.06 | 92 | 1010.3 |
| 20260902201317 | 63 | 221 | 4.3 | 8.7 | 0.00 | 0.06 | 0.06 | 92 | 1010.4 |
| 20260902200815 | 63 | 238 | 3.5 | 6.1 | 0.00 | 0.06 | 0.06 | 92 | 1010.4 |
| 20260902195816 | 63 | 220 | 2.6 | 6.1 | 0.00 | 0.06 | 0.06 | 92 | 1010.4 |
| 20260902195315 | 63 | 241 | 2.6 | 7.0 | 0.00 | 0.06 | 0.06 | 93 | 1010.4 |
| 20260902194816 | 63 | 258 | 2.6 | 6.1 | 0.00 | 0.06 | 0.06 | 93 | 1010.3 |
| 20260902193315 | 63 | 248 | 4.3 | 6.1 | 0.00 | 0.06 | 0.06 | 93 | 1010.3 |
| 20260902192816 | 63 | 242 | 2.6 | 7.0 | 0.00 | 0.06 | 0.06 | 93 | 1010.2 |
| 20260902192316 | 63 | 252 | 3.5 | 7.0 | 0.00 | 0.06 | 0.06 | 93 | 1010.2 |
| 20260902191816 | 63 | 245 | 4.3 | 7.0 | 0.00 | 0.06 | 0.06 | 93 | 1010.2 |
| 20260902191316 | 63 | 247 | 4.3 | 7.8 | 0.00 | 0.06 | 0.06 | 94 | 1010.3 |
| 20260902190816 | 63 | 241 | 3.5 | 7.0 | 0.00 | 0.06 | 0.06 | 94 | 1010.3 |
| 20260902190315 | 63 | 239 | 3.5 | 6.1 | 0.00 | 0.06 | 0.06 | 94 | 1010.4 |
| 20260902185816 | 63 | 247 | 2.6 | 5.2 | 0.00 | 0.06 | 0.06 | 94 | 1010.4 |
| 20260902185318 | 63 | 249 | 3.5 | 5.2 | 0.00 | 0.06 | 0.06 | 94 | 1010.5 |
| 20260902184816 | 63 | 256 | 1.7 | 5.2 | 0.00 | 0.06 | 0.06 | 94 | 1010.4 |
| 20260902184316 | 63 | 241 | 2.6 | 5.2 | 0.00 | 0.06 | 0.06 | 94 | 1010.5 |
| 20260902183815 | 63 | 208 | 2.6 | 5.2 | 0.00 | 0.06 | 0.06 | 94 | 1010.5 |
| 20260902183315 | 63 | 212 | 0.9 | 2.6 | 0.00 | 0.06 | 0.06 | 94 | 1010.4 |
| 20260902182815 | 63 | 186 | 0.9 | 2.6 | 0.00 | 0.06 | 0.06 | 94 | 1010.4 |
| 20260902182316 | 63 | 186 | 1.7 | 4.3 | 0.00 | 0.06 | 0.06 | 94 | 1010.4 |
| 20260902181816 | 63 | 199 | 2.6 | 4.3 | 0.00 | 0.06 | 0.06 | 93 | 1010.4 |
| 20260902181316 | 63 | 216 | 2.6 | 5.2 | 0.00 | 0.06 | 0.06 | 93 | 1010.5 |
| 20260902180816 | 63 | 211 | 2.6 | 5.2 | 0.00 | 0.06 | 0.06 | 93 | 1010.4 |
| 20260902180315 | 63 | 198 | 1.7 | 7.0 | 0.00 | 0.06 | 0.06 | 92 | 1010.4 |
| 20260902175815 | 63 | 236 | 1.7 | 4.3 | 0.00 | 0.06 | 0.06 | 92 | 1010.4 |
| 20260902175315 | 63 | 207 | 1.7 | 2.6 | 0.00 | 0.06 | 0.06 | 92 | 1010.4 |
| 20260902174817 | 63 | 196 | 1.7 | 5.2 | 0.00 | 0.06 | 0.06 | 92 | 1010.4 |
| 20260902174315 | 63 | 205 | 2.6 | 4.3 | 0.00 | 0.06 | 0.06 | 92 | 1010.4 |
| 20260902173816 | 63 | 183 | 1.7 | 2.6 | 0.00 | 0.06 | 0.06 | 92 | 1010.4 |
| 20260902173317 | 63 | 183 | 1.7 | 4.3 | 0.00 | 0.06 | 0.06 | 92 | 1010.5 |
| 20260902172815 | 63 | 193 | 1.7 | 4.3 | 0.00 | 0.06 | 0.06 | 92 | 1010.5 |
| 20260902172317 | 63 | 191 | 0.9 | 2.6 | 0.00 | 0.06 | 0.06 | 92 | 1010.5 |
| 20260902171815 | 63 | 191 | 0.9 | 2.6 | 0.00 | 0.06 | 0.06 | 92 | 1010.6 |
| 20260902171316 | 63 | 197 | 0.9 | 1.7 | 0.00 | 0.06 | 0.06 | 92 | 1010.6 |
| 20260902170815 | 63 | 197 | 0.9 | 2.6 | 0.00 | 0.06 | 0.06 | 91 | 1010.6 |
| 20260902170315 | 63 | 209 | 0.9 | 2.6 | 0.00 | 0.06 | 0.06 | 91 | 1010.7 |
| 20260902165816 | 64 | 209 | 0.9 | 2.6 | 0.00 | 0.06 | 0.06 | 91 | 1010.8 |
| 20260902165314 | 64 | 195 | 1.7 | 5.2 | 0.00 | 0.06 | 0.06 | 90 | 1010.9 |
| 20260902164816 | 64 | 204 | 3.5 | 6.1 | 0.00 | 0.06 | 0.06 | 90 | 1011.0 |
| 20260902164317 | 64 | 210 | 2.6 | 6.1 | 0.00 | 0.06 | 0.06 | 90 | 1011.0 |
| 20260902163315 | 64 | 190 | 4.3 | 7.0 | 0.00 | 0.06 | 0.06 | 89 | 1011.0 |
| 20260902162816 | 64 | 162 | 2.6 | 8.7 | 0.00 | 0.06 | 0.06 | 90 | 1010.9 |
| 20260902161816 | 63 | 174 | 3.5 | 7.0 | 0.00 | 0.06 | 0.06 | 90 | 1011.2 |
| 20260902161316 | 63 | 188 | 4.3 | 10.4 | 0.00 | 0.06 | 0.06 | 91 | 1011.3 |
| 20260902160816 | 63 | 200 | 3.5 | 8.7 | 0.00 | 0.06 | 0.06 | 92 | 1011.3 |
| 20260902160315 | 62 | 151 | 2.6 | 7.0 | 0.00 | 0.06 | 0.06 | 93 | 1011.3 |
| 20260902155816 | 62 | 151 | 1.7 | 5.2 | 0.00 | 0.06 | 0.06 | 93 | 1011.3 |
| 20260902154815 | 61 | 135 | 1.7 | 6.1 | 0.00 | 0.06 | 0.06 | 93 | 1011.4 |
| 20260902154316 | 61 | 133 | 2.6 | 4.3 | 0.00 | 0.06 | 0.06 | 93 | 1011.5 |
| 20260902153816 | 61 | 76 | 1.7 | 4.3 | 0.00 | 0.06 | 0.06 | 93 | 1011.6 |
| 20260902153315 | 61 | 111 | 1.7 | 5.2 | 0.00 | 0.06 | 0.06 | 93 | 1011.7 |
| 20260902152816 | 61 | 71 | 0.9 | 2.6 | 0.00 | 0.06 | 0.06 | 93 | 1011.7 |
| 20260902152315 | 61 | 76 | 1.7 | 2.6 | 0.00 | 0.06 | 0.06 | 93 | 1011.8 |
| 20260902151816 | 61 | 100 | 1.7 | 2.6 | 0.00 | 0.06 | 0.06 | 93 | 1011.8 |
| 20260902151315 | 61 | 110 | 1.7 | 6.1 | 0.00 | 0.06 | 0.06 | 93 | 1011.9 |
| 20260902150815 | 61 | 133 | 2.6 | 6.1 | 0.00 | 0.06 | 0.06 | 93 | 1011.9 |
| 20260902150316 | 61 | 144 | 1.7 | 4.3 | 0.01 | 0.06 | 0.06 | 93 | 1011.9 |
| 20260902145816 | 61 | 151 | 0.9 | 4.3 | 0.01 | 0.06 | 0.06 | 93 | 1012.0 |
| 20260902145316 | 61 | 180 | 2.6 | 5.2 | 0.02 | 0.06 | 0.06 | 93 | 1012.0 |
| 20260902144815 | 60 | 151 | 0.9 | 4.3 | 0.02 | 0.06 | 0.06 | 93 | 1012.2 |
| 20260902144315 | 60 | 158 | 2.6 | 5.2 | 0.02 | 0.06 | 0.06 | 93 | 1012.2 |
| 20260902143815 | 60 | 115 | 2.6 | 5.2 | 0.02 | 0.06 | 0.06 | 94 | 1012.2 |
| 20260902143315 | 60 | 103 | 1.7 | 4.3 | 0.02 | 0.06 | 0.06 | 94 | 1012.2 |
| 20260902142815 | 60 | 111 | 2.6 | 4.3 | 0.02 | 0.06 | 0.06 | 94 | 1012.3 |
| 20260902142315 | 60 | 77 | 2.6 | 6.1 | 0.02 | 0.06 | 0.06 | 93 | 1012.3 |
| 20260902141815 | 60 | 106 | 4.3 | 7.8 | 0.02 | 0.06 | 0.06 | 93 | 1012.4 |
| 20260902141315 | 60 | 108 | 2.6 | 6.1 | 0.02 | 0.06 | 0.06 | 93 | 1012.5 |
| 20260902140315 | 60 | 94 | 4.3 | 7.8 | 0.02 | 0.06 | 0.06 | 93 | 1012.6 |
| 20260902135816 | 60 | 77 | 3.5 | 7.0 | 0.02 | 0.06 | 0.06 | 93 | 1012.6 |
| 20260902134815 | 60 | 93 | 1.7 | 5.2 | 0.01 | 0.05 | 0.05 | 92 | 1012.7 |
| 20260902134315 | 60 | 105 | 1.7 | 4.3 | 0.02 | 0.05 | 0.05 | 92 | 1012.9 |
| 20260902133815 | 60 | 115 | 2.6 | 6.1 | 0.02 | 0.05 | 0.05 | 91 | 1012.9 |
| 20260902133315 | 60 | 117 | 4.3 | 7.8 | 0.01 | 0.04 | 0.04 | 90 | 1012.9 |
| 20260902132815 | 60 | 116 | 2.6 | 6.1 | 0.01 | 0.04 | 0.04 | 90 | 1013.0 |
| 20260902131815 | 60 | 123 | 2.6 | 7.0 | 0.01 | 0.04 | 0.04 | 90 | 1013.1 |
| 20260902131315 | 60 | 114 | 4.3 | 7.0 | 0.01 | 0.04 | 0.04 | 90 | 1013.1 |
| 20260902130815 | 60 | 99 | 2.6 | 7.8 | 0.01 | 0.04 | 0.04 | 90 | 1013.2 |
| 20260902125315 | 60 | 103 | 2.6 | 7.0 | 0.01 | 0.04 | 0.04 | 89 | 1013.4 |
| 20260902124315 | 60 | 105 | 2.6 | 6.1 | 0.00 | 0.03 | 0.03 | 89 | 1013.5 |
| 20260902123815 | 60 | 95 | 1.7 | 6.1 | 0.00 | 0.03 | 0.03 | 89 | 1013.5 |
| 20260902123316 | 60 | 155 | 2.6 | 6.1 | 0.01 | 0.03 | 0.03 | 88 | 1013.5 |
| 20260902122314 | 60 | 111 | 4.3 | 7.0 | 0.02 | 0.03 | 0.03 | 88 | 1013.7 |
| 20260902121815 | 60 | 112 | 4.3 | 7.8 | 0.02 | 0.03 | 0.03 | 88 | 1013.8 |
| 20260902120815 | 60 | 95 | 2.6 | 5.2 | 0.02 | 0.03 | 0.03 | 89 | 1013.8 |
| 20260902120315 | 60 | 88 | 2.6 | 6.1 | 0.02 | 0.03 | 0.03 | 89 | 1014.0 |
| 20260902115815 | 60 | 143 | 2.6 | 5.2 | 0.02 | 0.03 | 0.03 | 89 | 1014.1 |
| 20260902115315 | 60 | 202 | 2.6 | 6.1 | 0.02 | 0.03 | 0.03 | 87 | 1014.2 |
| 20260902114815 | 60 | 162 | 2.6 | 6.1 | 0.03 | 0.03 | 0.03 | 88 | 1014.3 |
| 20260902113815 | 60 | 154 | 2.6 | 7.0 | 0.03 | 0.03 | 0.03 | 87 | 1014.4 |
| 20260902113315 | 60 | 154 | 2.6 | 7.0 | 0.02 | 0.02 | 0.02 | 86 | 1014.6 |
| 20260902112816 | 60 | 158 | 3.5 | 6.1 | 0.02 | 0.02 | 0.02 | 85 | 1014.6 |
| 20260902111816 | 60 | 175 | 2.6 | 7.0 | 0.01 | 0.01 | 0.01 | 85 | 1014.9 |
| 20260902110316 | 60 | 185 | 2.6 | 7.0 | 0.01 | 0.01 | 0.01 | 86 | 1015.0 |
| 20260902104816 | 61 | 164 | 4.3 | 6.1 | 0.00 | 0.00 | 0.00 | 82 | 1015.1 |
| 20260902104315 | 61 | 182 | 4.3 | 7.8 | 0.00 | 0.00 | 0.00 | 81 | 1015.2 |
| 20260902103315 | 61 | 170 | 2.6 | 7.0 | 0.00 | 0.00 | 0.00 | 83 | 1015.2 |
| 20260902102815 | 61 | 184 | 2.6 | 6.1 | 0.00 | 0.00 | 0.00 | 83 | 1015.2 |
| 20260902102314 | 61 | 182 | 3.5 | 8.7 | 0.00 | 0.00 | 0.00 | 83 | 1015.1 |
| 20260902101815 | 61 | 178 | 5.2 | 8.7 | 0.00 | 0.00 | 0.00 | 84 | 1015.2 |
| 20260902101315 | 61 | 193 | 3.5 | 7.0 | 0.00 | 0.00 | 0.00 | 86 | 1015.2 |
| 20260902100815 | 61 | 219 | 4.3 | 7.0 | 0.00 | 0.00 | 0.00 | 85 | 1015.3 |
| 20260902100315 | 61 | 211 | 2.6 | 7.0 | 0.00 | 0.00 | 0.00 | 86 | 1015.3 |
| 20260902095815 | 60 | 190 | 3.5 | 7.0 | 0.00 | 0.00 | 0.00 | 87 | 1015.3 |
| 20260902094815 | 60 | 208 | 2.6 | 6.1 | 0.00 | 0.00 | 0.00 | 89 | 1015.4 |
| 20260902093815 | 60 | 197 | 2.6 | 6.1 | 0.00 | 0.00 | 0.00 | 89 | 1015.3 |
| 20260902093315 | 59 | 200 | 2.6 | 4.3 | 0.00 | 0.00 | 0.00 | 89 | 1015.4 |
| 20260902092815 | 59 | 194 | 2.6 | 4.3 | 0.00 | 0.00 | 0.00 | 89 | 1015.4 |
| 20260902092314 | 59 | 175 | 2.6 | 4.3 | 0.00 | 0.00 | 0.00 | 89 | 1015.4 |
| 20260902091815 | 59 | 214 | 4.3 | 7.8 | 0.00 | 0.00 | 0.00 | 89 | 1015.4 |
| 20260902091315 | 59 | 207 | 4.3 | 7.0 | 0.00 | 0.00 | 0.00 | 89 | 1015.4 |
| 20260902090315 | 59 | 186 | 2.6 | 5.2 | 0.00 | 0.00 | 0.00 | 89 | 1015.4 |
| 20260902085815 | 59 | 225 | 2.6 | 6.1 | 0.00 | 0.00 | 0.00 | 89 | 1015.4 |
| 20260902085315 | 59 | 201 | 2.6 | 6.1 | 0.00 | 0.00 | 0.00 | 89 | 1015.5 |
| 20260902084815 | 59 | 184 | 1.7 | 5.2 | 0.00 | 0.00 | 0.00 | 89 | 1015.4 |
| 20260902083815 | 59 | 217 | 1.7 | 4.3 | 0.00 | 0.00 | 0.00 | 89 | 1015.5 |
| 20260902083315 | 59 | 194 | 2.6 | 4.3 | 0.00 | 0.00 | 0.00 | 89 | 1015.4 |
| 20260902082816 | 59 | 205 | 1.7 | 4.3 | 0.00 | 0.00 | 0.00 | 89 | 1015.4 |
| 20260902082314 | 58 | 196 | 2.6 | 5.2 | 0.00 | 0.00 | 0.00 | 89 | 1015.4 |
| 20260902081815 | 58 | 187 | 1.7 | 5.2 | 0.00 | 0.00 | 0.00 | 89 | 1015.5 |
| 20260902080815 | 58 | 267 | 2.6 | 5.2 | 0.00 | 0.00 | 0.00 | 89 | 1015.5 |
| 20260902080315 | 58 | 244 | 1.7 | 2.6 | 0.00 | 0.00 | 0.00 | 88 | 1015.5 |
| 20260902075814 | 58 | 237 | 4.3 | 7.8 | 0.00 | 0.00 | 0.00 | 88 | 1015.5 |
| 20260902074815 | 58 | 288 | 1.7 | 4.3 | 0.00 | 0.00 | 0.00 | 89 | 1015.5 |
| 20260902074314 | 58 | 215 | 1.7 | 2.6 | 0.00 | 0.00 | 0.00 | 89 | 1015.4 |
| 20260902073814 | 58 | 196 | 1.7 | 5.2 | 0.00 | 0.00 | 0.00 | 89 | 1015.5 |
| 20260902073315 | 58 | 220 | 0.9 | 2.6 | 0.00 | 0.00 | 0.00 | 89 | 1015.4 |
| 20260902072815 | 58 | 226 | 2.6 | 4.3 | 0.00 | 0.00 | 0.00 | 89 | 1015.3 |
| 20260902072316 | 58 | 270 | 2.6 | 4.3 | 0.00 | 0.00 | 0.00 | 89 | 1015.3 |
| 20260902071315 | 58 | 162 | 1.7 | 5.2 | 0.00 | 0.00 | 0.00 | 89 | 1015.3 |
| 20260902070815 | 58 | 154 | 1.7 | 4.3 | 0.00 | 0.00 | 0.00 | 89 | 1015.3 |
| 20260902070315 | 57 | 210 | 1.7 | 4.3 | 0.00 | 0.00 | 0.00 | 89 | 1015.3 |
| 20260902065314 | 57 | 181 | 1.7 | 4.3 | 0.00 | 0.00 | 0.00 | 89 | 1015.2 |
| 20260902064815 | 57 | 176 | 0.9 | 2.6 | 0.00 | 0.00 | 0.00 | 89 | 1015.2 |
| 20260902063814 | 57 | 209 | 2.6 | 5.2 | 0.00 | 0.00 | 0.00 | 89 | 1015.2 |
| 20260902063314 | 57 | 217 | 1.7 | 4.3 | 0.00 | 0.00 | 0.00 | 89 | 1015.1 |
| 20260902062815 | 57 | 217 | 2.6 | 5.2 | 0.00 | 0.00 | 0.00 | 90 | 1015.2 |
| 20260902062314 | 57 | 194 | 2.6 | 5.2 | 0.00 | 0.00 | 0.00 | 90 | 1015.2 |
| 20260902061814 | 57 | 194 | 2.6 | 6.1 | 0.00 | 0.00 | 0.00 | 90 | 1015.2 |
| 20260902061315 | 57 | 197 | 0.9 | 2.6 | 0.00 | 0.00 | 0.00 | 90 | 1015.3 |
| 20260902060815 | 57 | 229 | 2.6 | 5.2 | 0.00 | 0.00 | 0.00 | 90 | 1015.2 |
| 20260902055815 | 57 | 183 | 3.5 | 6.1 | 0.00 | 0.00 | 0.00 | 90 | 1015.0 |
| 20260902055315 | 57 | 184 | 1.7 | 4.3 | 0.00 | 0.00 | 0.00 | 90 | 1015.0 |
| 20260902054815 | 57 | 181 | 0.9 | 2.6 | 0.00 | 0.00 | 0.00 | 90 | 1014.9 |
| 20260902054314 | 57 | 135 | 0.9 | 1.7 | 0.00 | 0.00 | 0.00 | 90 | 1014.9 |
| 20260902053815 | 57 | 135 | 0.0 | 1.7 | 0.00 | 0.00 | 0.00 | 90 | 1014.9 |
| 20260902053315 | 57 | 135 | 0.0 | 1.7 | 0.00 | 0.00 | 0.00 | 90 | 1015.0 |
| 20260902052815 | 57 | 135 | 0.0 | 0.9 | 0.00 | 0.00 | 0.00 | 90 | 1015.0 |
| 20260902052314 | 57 | 135 | 0.9 | 1.7 | 0.00 | 0.00 | 0.00 | 89 | 1015.0 |
| 20260902051815 | 57 | 135 | 0.0 | 1.7 | 0.00 | 0.00 | 0.00 | 89 | 1014.9 |
| 20260902051314 | 57 | 135 | 0.9 | 2.6 | 0.00 | 0.00 | 0.00 | 89 | 1014.9 |
| 20260902050815 | 57 | 135 | 0.9 | 1.7 | 0.00 | 0.00 | 0.00 | 89 | 1015.0 |
| 20260902050316 | 57 | 135 | 0.9 | 1.7 | 0.00 | 0.00 | 0.00 | 89 | 1014.9 |
| 20260902045814 | 58 | 159 | 0.9 | 1.7 | 0.00 | 0.00 | 0.00 | 89 | 1014.9 |
| 20260902045315 | 58 | 271 | 0.9 | 1.7 | 0.00 | 0.00 | 0.00 | 89 | 1014.9 |
| 20260902044814 | 58 | 271 | 0.9 | 0.9 | 0.00 | 0.00 | 0.00 | 89 | 1014.9 |
| 20260902043315 | 58 | 271 | 0.0 | 0.9 | 0.00 | 0.00 | 0.00 | 89 | 1015.0 |
| 20260902042815 | 58 | 271 | 0.0 | 0.9 | 0.00 | 0.00 | 0.00 | 89 | 1015.0 |
| 20260902042314 | 58 | 271 | 0.0 | 1.7 | 0.00 | 0.00 | 0.00 | 89 | 1015.0 |
| 20260902041815 | 58 | 271 | 0.0 | 1.7 | 0.00 | 0.00 | 0.00 | 88 | 1015.0 |
| 20260902041314 | 58 | 271 | 0.9 | 2.6 | 0.00 | 0.00 | 0.00 | 88 | 1015.0 |
| 20260902040814 | 58 | 204 | 0.9 | 2.6 | 0.00 | 0.00 | 0.00 | 88 | 1015.0 |
| 20260902035815 | 58 | 220 | 0.0 | 1.7 | 0.00 | 0.00 | 0.00 | 88 | 1015.0 |
| 20260902035314 | 58 | 220 | 0.9 | 1.7 | 0.00 | 0.00 | 0.00 | 88 | 1015.0 |
| 20260902034815 | 58 | 220 | 0.9 | 1.7 | 0.00 | 0.00 | 0.00 | 88 | 1015.0 |
| 20260902034315 | 58 | 220 | 0.9 | 2.6 | 0.00 | 0.00 | 0.00 | 88 | 1014.9 |
| 20260902033814 | 58 | 200 | 0.9 | 1.7 | 0.00 | 0.00 | 0.00 | 88 | 1015.0 |
| 20260902032815 | 58 | 200 | 0.0 | 0.9 | 0.00 | 0.00 | 0.00 | 89 | 1015.0 |
| 20260902032314 | 58 | 200 | 1.7 | 2.6 | 0.00 | 0.00 | 0.00 | 89 | 1015.0 |
| 20260902031815 | 57 | 212 | 1.7 | 2.6 | 0.00 | 0.00 | 0.00 | 89 | 1015.0 |
| 20260902031314 | 57 | 211 | 0.9 | 1.7 | 0.00 | 0.00 | 0.00 | 89 | 1015.0 |
| 20260902030815 | 57 | 211 | 0.9 | 2.6 | 0.00 | 0.00 | 0.00 | 89 | 1015.0 |
| 20260902030314 | 57 | 236 | 0.9 | 1.7 | 0.00 | 0.00 | 0.00 | 88 | 1015.0 |
| 20260902025814 | 57 | 236 | 0.0 | 0.9 | 0.00 | 0.00 | 0.00 | 88 | 1015.1 |
| 20260902025315 | 57 | 236 | 0.0 | 1.7 | 0.00 | 0.00 | 0.00 | 88 | 1015.1 |
| 20260902024815 | 57 | 236 | 0.0 | 1.7 | 0.00 | 0.00 | 0.00 | 88 | 1015.3 |
| 20260902024315 | 57 | 236 | 0.9 | 0.9 | 0.00 | 0.00 | 0.00 | 87 | 1015.4 |
| 20260902023814 | 57 | 236 | 1.7 | 2.6 | 0.00 | 0.00 | 0.00 | 87 | 1015.4 |
| 20260902023315 | 57 | 236 | 0.9 | 2.6 | 0.00 | 0.00 | 0.00 | 87 | 1015.4 |
| 20260902022814 | 57 | 271 | 0.9 | 2.6 | 0.00 | 0.00 | 0.00 | 87 | 1015.4 |
| 20260902022314 | 57 | 245 | 0.9 | 2.6 | 0.00 | 0.00 | 0.00 | 87 | 1015.5 |
| 20260902021814 | 58 | 245 | 1.7 | 2.6 | 0.00 | 0.00 | 0.00 | 86 | 1015.5 |
| 20260902021314 | 58 | 263 | 0.9 | 2.6 | 0.00 | 0.00 | 0.00 | 86 | 1015.5 |
| 20260902020815 | 58 | 257 | 1.7 | 5.2 | 0.00 | 0.00 | 0.00 | 85 | 1015.6 |
| 20260902020314 | 58 | 212 | 2.6 | 6.1 | 0.00 | 0.00 | 0.00 | 85 | 1015.7 |
| 20260902015815 | 58 | 220 | 3.5 | 5.2 | 0.00 | 0.00 | 0.00 | 85 | 1015.7 |
| 20260902015314 | 58 | 197 | 1.7 | 2.6 | 0.00 | 0.00 | 0.00 | 85 | 1015.6 |
| 20260902014315 | 58 | 207 | 1.7 | 2.6 | 0.00 | 0.00 | 0.00 | 85 | 1015.6 |
| 20260902013814 | 59 | 206 | 1.7 | 2.6 | 0.00 | 0.00 | 0.00 | 85 | 1015.6 |
| 20260902013314 | 59 | 206 | 0.0 | 1.7 | 0.00 | 0.00 | 0.00 | 85 | 1015.7 |
| 20260902012814 | 58 | 206 | 0.0 | 1.7 | 0.00 | 0.00 | 0.00 | 85 | 1015.7 |
| 20260902012314 | 58 | 206 | 0.9 | 2.6 | 0.00 | 0.00 | 0.00 | 85 | 1015.6 |
| 20260902011815 | 58 | 153 | 2.6 | 7.0 | 0.00 | 0.00 | 0.00 | 85 | 1015.7 |
| 20260902011316 | 58 | 21 | 0.0 | 1.7 | 0.00 | 0.00 | 0.00 | 85 | 1015.7 |
| 20260902010815 | 58 | 27 | 1.7 | 2.6 | 0.00 | 0.00 | 0.00 | 84 | 1015.7 |
| 20260902010314 | 58 | 106 | 0.9 | 1.7 | 0.00 | 0.00 | 0.00 | 84 | 1015.7 |
| 20260902005816 | 59 | 213 | 1.7 | 5.2 | 0.00 | 0.00 | 0.00 | 84 | 1015.6 |
| 20260902004815 | 59 | 225 | 0.0 | 1.7 | 0.00 | 0.00 | 0.00 | 83 | 1015.6 |
| 20260902004315 | 59 | 225 | 0.9 | 1.7 | 0.00 | 0.00 | 0.00 | 83 | 1015.8 |
| 20260902003814 | 59 | 225 | 0.0 | 1.7 | 0.00 | 0.00 | 0.00 | 83 | 1015.7 |
| 20260902003314 | 59 | 225 | 2.6 | 4.3 | 0.00 | 0.00 | 0.00 | 83 | 1015.8 |
| 20260902002815 | 59 | 240 | 1.7 | 4.3 | 0.00 | 0.00 | 0.00 | 83 | 1015.8 |
| 20260902001814 | 59 | 221 | 2.6 | 19.1 | 0.00 | 0.00 | 0.00 | 83 | 1015.8 |
| 20260902000815 | 59 | 215 | 2.6 | 5.2 | 0.00 | 0.00 | 0.00 | 83 | 1015.9 |
| 20260902000314 | 59 | 263 | 1.7 | 4.3 | 0.00 | 0.00 | 0.00 | 83 | 1015.9 |
| 20260901235814 | 59 | 230 | 2.6 | 6.1 | 0.00 | 0.00 | 0.00 | 82 | 1015.9 |
| 20260901235314 | 59 | 249 | 4.3 | 5.2 | 0.00 | 0.00 | 0.00 | 82 | 1015.9 |
| 20260901234814 | 59 | 251 | 4.3 | 6.1 | 0.00 | 0.00 | 0.00 | 82 | 1016.0 |
| 20260901234314 | 59 | 237 | 2.6 | 7.0 | 0.00 | 0.00 | 0.00 | 82 | 1015.9 |
| 20260901233815 | 59 | 222 | 4.3 | 7.8 | 0.00 | 0.00 | 0.00 | 82 | 1015.8 |
| 20260901233313 | 59 | 231 | 2.6 | 7.0 | 0.00 | 0.00 | 0.00 | 82 | 1015.8 |
| 20260901232814 | 59 | 219 | 5.2 | 7.0 | 0.00 | 0.00 | 0.00 | 82 | 1015.8 |
| 20260901232314 | 59 | 260 | 3.5 | 10.4 | 0.00 | 0.00 | 0.00 | 82 | 1015.8 |
| 20260901231815 | 59 | 229 | 3.5 | 6.1 | 0.00 | 0.00 | 0.00 | 82 | 1015.9 |
| 20260901231314 | 60 | 248 | 2.6 | 5.2 | 0.00 | 0.00 | 0.00 | 82 | 1015.9 |
| 20260901230855 | 60 | 243 | 2.6 | 6.1 | 0.00 | 0.00 | 0.00 | 81 | 1016.0 |
| 20260901230314 | 60 | 241 | 3.5 | 6.1 | 0.00 | 0.00 | 0.00 | 81 | 1016.0 |
| 20260901225814 | 60 | 222 | 2.6 | 6.1 | 0.00 | 0.00 | 0.00 | 81 | 1016.0 |
| 20260901225314 | 60 | 250 | 3.5 | 7.8 | 0.00 | 0.00 | 0.00 | 81 | 1016.1 |
| 20260901224815 | 60 | 234 | 2.6 | 6.1 | 0.00 | 0.00 | 0.00 | 81 | 1016.1 |
| 20260901224314 | 60 | 226 | 2.6 | 6.1 | 0.00 | 0.00 | 0.00 | 81 | 1016.1 |
| 20260901222814 | 60 | 216 | 3.5 | 6.1 | 0.00 | 0.00 | 0.00 | 80 | 1016.2 |
| 20260901222314 | 60 | 259 | 2.6 | 4.3 | 0.00 | 0.00 | 0.00 | 80 | 1016.2 |
| 20260901221814 | 60 | 261 | 1.7 | 2.6 | 0.00 | 0.00 | 0.00 | 80 | 1016.2 |
| 20260901221314 | 60 | 258 | 2.6 | 5.2 | 0.00 | 0.00 | 0.00 | 80 | 1016.2 |
| 20260901220814 | 60 | 280 | 1.7 | 6.1 | 0.00 | 0.00 | 0.00 | 79 | 1016.2 |
| 20260901215314 | 60 | 247 | 1.7 | 2.6 | 0.00 | 0.00 | 0.00 | 80 | 1016.2 |
| 20260901214314 | 61 | 216 | 2.6 | 5.2 | 0.00 | 0.00 | 0.00 | 80 | 1016.2 |
| 20260901213814 | 61 | 219 | 3.5 | 6.1 | 0.00 | 0.00 | 0.00 | 81 | 1016.2 |
| 20260901213314 | 61 | 232 | 1.7 | 6.1 | 0.00 | 0.00 | 0.00 | 81 | 1016.2 |
| 20260901212816 | 61 | 204 | 1.7 | 5.2 | 0.00 | 0.00 | 0.00 | 82 | 1016.2 |
| 20260901212314 | 61 | 207 | 2.6 | 6.1 | 0.00 | 0.00 | 0.00 | 82 | 1016.2 |
| 20260901211814 | 61 | 185 | 2.6 | 4.3 | 0.00 | 0.00 | 0.00 | 82 | 1016.2 |
| 20260901211314 | 61 | 168 | 0.9 | 2.6 | 0.00 | 0.00 | 0.00 | 83 | 1016.3 |
| 20260901210315 | 61 | 259 | 1.7 | 2.6 | 0.00 | 0.00 | 0.00 | 82 | 1016.3 |
| 20260901205815 | 61 | 269 | 0.9 | 2.6 | 0.00 | 0.00 | 0.00 | 82 | 1016.4 |
| 20260901205314 | 61 | 249 | 1.7 | 7.0 | 0.00 | 0.00 | 0.00 | 82 | 1016.3 |
| 20260901204814 | 61 | 247 | 2.6 | 6.1 | 0.00 | 0.00 | 0.00 | 83 | 1016.3 |